CubeBel-2 (EU11S)
1 57175U 23091K   26245.55217673  .00008080  00000-0  27334-3 0  9993
2 57175  97.4974 309.5263 0009117 191.1288 168.9752 15.30847797176130
RS-38S
1 57189U 23091Z   26245.48289254  .00012308  00000-0  32817-3 0  9994
2 57189  97.5018 316.6173 0007747 145.1399 215.0355 15.38272670176563
SONATE-2
1 59112U 24043Q   26244.96760829  .00039090  00000-0  40307-3 0  9994
2 59112  97.5614  40.4627 0005021 275.0094  85.0592 15.64710645139876
GRBBeta
1 60237U 24128C   26245.32783721  .00001895  00000-0  13885-3 0  9998
2 60237  61.9901 305.5199 0029529 151.5902 208.6809 15.07117114117895
Curium One
1 60242U 24128H   26245.56009323  .00003536  00000-0  20733-3 0  9993
2 60242  61.9781 291.5226 0028554 146.2757 214.0163 15.13504199118163
ROBUSTA-3A
1 60243U 24128J   26245.43749068  .00003284  00000-0  19801-3 0  9991
2 60243  61.9862 294.8668 0030498 143.3814 216.9374 15.12617930118108
CatSat
1 60246U 24125J   26245.57146217  .00071000  00000-0  60180-3 0  9990
2 60246  97.1985  99.6294 0014638 245.1528 114.8212 15.69327347119486
HYPERVIEW-1G (RS66S)
1 61772U 24199AP  26230.11543498  .07890463  24672-5  93922-3 0  9997
2 61772  97.2456 114.2453 0006603 245.8477 114.2131 16.36574258144515
AO-123
1 61781U 24199AY  26245.61472312  .00005175  00000-0  14621-3 0  9998
2 61781  97.2873 113.5937 0014509  37.0268 323.1975 15.36691337145818
LASARsat
1 62391U 24247Q   26244.86175210  .00032314  00000-0  54419-3 0  9997
2 62391  44.9717 189.8201 0007496 113.0698 247.0984 15.51157422 95201
CroCube
1 62394U 24247T   26244.87605463  .00037648  00000-0  57345-3 0  9995
2 62394  44.9694 185.5727 0007946 124.3713 235.7933 15.53876974 95252
JINJUSat 1B
1 63210U 25052A   26245.21721821  .00011793  00000-0  34138-3 0  9992
2 63210  97.3881 142.1558 0004130 136.5519 223.6051 15.35736603 81911
NUSHSAT 1
1 63211U 25052B   26245.25222102  .00014700  00000-0  38466-3 0  9994
2 63211  97.3857 143.0560 0004030 137.0612 223.0949 15.38825214 81984
TEVEL2-4
1 63213U 25052D   26245.45086289  .00012987  00000-0  35908-3 0  9995
2 63213  97.3780 142.0659 0003065 142.6917 217.4541 15.37153155 81977
TEVEL2-5
1 63214U 25052E   26244.63469826  .00013247  00000-0  36905-3 0  9995
2 63214  97.3777 141.1704 0002786 145.1040 215.0388 15.36913063 81849
TEVEL2-6
1 63215U 25052F   26245.43006289  .00012267  00000-0  34204-3 0  9996
2 63215  97.3780 141.9535 0002830 144.9110 215.2321 15.36904361 81962
TEVEL2-1
1 63217U 25052H   26245.22769601  .00012309  00000-0  35024-3 0  9997
2 63217  97.3752 141.2772 0002427 157.8067 202.3282 15.36270213 81915
TEVEL2-3
1 63218U 25052J   26245.28421544  .00012566  00000-0  35664-3 0  9990
2 63218  97.3757 141.3678 0002258 153.3600 206.7760 15.36346268 81927
TEVEL2-2
1 63219U 25052K   26245.22742609  .00012395  00000-0  35253-3 0  9997
2 63219  97.3753 141.2811 0002527 159.4064 200.7282 15.36284025 81916
TEVEL2-9
1 63237U 25052AD  26245.43962946  .00010424  00000-0  31807-3 0  9990
2 63237  97.3813 140.6904 0004545 207.4992 152.6011 15.34104440 81864
TEVEL2-7
1 63238U 25052AE  26245.23586351  .00010633  00000-0  32807-3 0  9994
2 63238  97.3814 140.3669 0004478 208.8530 151.2465 15.33745388 81824
TEVEL2-8
1 63239U 25052AF  26245.44051163  .00010351  00000-0  31952-3 0  9993
2 63239  97.3818 140.5464 0004567 209.4482 150.6504 15.33739002 81852
SPIRONE
1 66657U 25274H   26244.75760512  .00001612  00000-0  15707-3 0  9994
2 66657  97.7472 172.9641 0013414 115.7492 244.5114 14.93805296 41654
K-HERO
1 66660U 25274L   26245.27715835  .00001496  00000-0  14473-3 0  9993
2 66660  97.7479 173.6934 0015247 118.7084 241.5670 14.94201904 41745
SNUGLITE-III DURI
1 66661U 25274M   26245.53151570  .00000938  00000-0  92708-4 0  9991
2 66661  97.7477 173.9650 0015818 118.9859 241.2949 14.94212968 41780
SAKHACUBE-CHOLBON
1 67290U 25313AU  26245.49482708  .00006471  00000-0  25304-3 0  9994
2 67290  97.3869 319.6075 0010554  85.6289 274.6155 15.26142398 37766
RS95S (QMR-KWT-2)
1 67291U 25313AV  26245.46293163  .00008661  00000-0  31806-3 0  9994
2 67291  97.3867 319.9454 0009980  83.9166 276.3210 15.28125674 37788
Ten-Koh2
1 68261U 25241B   26244.46059870  .00004320  00000-0  18541-3 0  9995
2 68261  51.6661 316.3781 0007348  35.8030 324.3440 15.24755218 26547
JACK-002
1 68417U 26067B   26244.86423434  .00004168  00000-0  19542-3 0  9992
2 68417  97.4646 202.5819 0003084  49.7722 310.3783 15.20227775 23599
DISCO 2
1 68431U 26067R   26244.83065993  .00006001  00000-0  28092-3 0  9995
2 68431  97.4677 202.5457 0004191  88.2717 271.8998 15.20100903 23580
HADES-SA (SpinnyONE)
1 68446U 26067AG  26244.83539434  .00013910  00000-0  62104-3 0  9996
2 68446  97.4470 202.1421 0007448 148.9099 211.2578 15.21453007 23577
PARUS-6U1
1 68456U 26067AS  26244.85725603  .00003360  00000-0  16747-3 0  9994
2 68456  97.4628 202.1093 0006526 141.0859 219.0846 15.18220446 23560
SAL-E
1 68458U 26067AU  26245.62416420  .00005027  00000-0  24516-3 0  9991
2 68458  97.4554 202.7692 0006563 146.4335 213.7317 15.18741541 23681
FSI-SAT 2
1 68792U 26088A   26244.97110924  .00003172  00000-0  21353-3 0  9997
2 68792  97.5171  32.3786 0013810 200.1253 159.9433 15.07352352 19859
OrigamiSat 2
1 68795U 26088D   26245.65287358  .00007294  00000-0  44793-3 0  9994
2 68795  97.5168  33.4617 0015027 168.4482 191.7096 15.10290910 19983
ARICA 2
1 68796U 26088E   26245.29651339  .00003448  00000-0  22180-3 0  9992
2 68796  97.5168  33.0015 0015722 169.5566 190.5993 15.08955803 19922
WASEDA-SAT-ZERO-II
1 68797U 26088F   26244.94407149  .00004019  00000-0  25477-3 0  9999
2 68797  97.5170  32.6994 0015535 169.4215 190.7344 15.09392027 19879
MANGARO-II-Piscus
1 68798U 26088G   26245.33223313  .00002165  00000-0  13945-3 0  9990
2 68798  97.5181  33.1208 0019067 171.9668 188.1870 15.09256028 19932
CO-128
1 69912U 26156AV  26245.45864146  .00000996  00000-0  10655-3 0  9998
2 69912  97.7493 144.8956 0001867 352.4319   7.6870 14.90915763  8511
MARINA
1 69920U 26156BD  26245.48078908  .00001626  00000-0  16537-3 0  9999
2 69920  97.7460 144.9990 0006822 337.0648  23.0265 14.92123575  8528
IO-86
1 40931U          26199.45381863  .00000000  00000-0  77536-4 0    07
2 40931   6.0006 322.6653 0012733 338.8432 273.6875 14.79294310    03
LILIUM-4                
1 71922C 26067AC  26089.50133053 -.00014632  00000+0 -74472-3 0    04
2 71922  97.4497  49.1617 0004341   5.9603 355.7042 15.16896692    16
